Location: Gwatt
(46.7204°N, 7.6223°E)
Time: 12:10:08
(UTC+00:00)

Transit 2A - Pass Details

Date: 17 May 2021
Orbit: 601 x 958 km, 66.7° (Epoch: 15 June)

Event Time Altitude Azimuth Distance (km) Brightness Sun altitude
Exits shadow 22:52:49 15° 87° (E) 1,641 7.7 -23.3°
Drops below altitude 10° 22:54:21 10° 68° (ENE) 1,960 8.3 -23.3°
Sets 22:57:11 0° 48° (NE) 2,857 9.4 -23.4°
